Regional Weather Roundup
Issued by NWS

Home | Current Version | Previous Version | Graphics & Text | Print | Product List | Glossary On
Versions: 1 2 3 4 5 6 7 8 9 10 11 12 13 14 15 16 17 18 19 20 21 22 23 24 25 26 27 28 29 30 31 32 33 34 35 36 37 38 39 40 41 42 43 44 45 46 47 48 49 50
000
ASUS43 KLMK 031302
RWRKY
KENTUCKY REGIONAL WEATHER ROUNDUP
NATIONAL WEATHER SERVICE LOUISVILLE KY
900 AM EDT SUN MAY 03 2015

NOTE "FAIR" INDICATES FEW OR NO CLOUDS BELOW 12,000 FEET
WITH NO SIGNIFICANT WEATHER AND/OR OBSTRUCTIONS TO VISIBILITY.

KYZ001>023-026-027-061>063-070>075-031400-
WESTERN AND SOUTH CENTRAL KENTUCKY

CITY           SKY/WX    TMP DP  RH WIND       PRES   REMARKS
PADUCAH        MOSUNNY   64  50  60 CALM      30.08R
HENDERSON      CLOUDY    61  50  67 S5        30.09S
OWENSBORO      PTSUNNY   58  51  77 S6        30.11S
HOPKINSVILLE   PTSUNNY   60  52  74 CALM      30.12R
BOWLING GREEN  PTSUNNY   56  50  80 E5        30.14R
GLASGOW        NOT AVBL
$$

KYZ024-025-028>034-038-045-046-053-031400-
NORTH CENTRAL KENTUCKY

CITY           SKY/WX    TMP DP  RH WIND       PRES   REMARKS
LOUISVILLE/SDF PTSUNNY   58  50  75 CALM      30.13R
LOUISVILLE/LOU PTSUNNY   58  49  72 S3        30.14R
FORT KNOX      CLOUDY    56  50  79 CALM      30.12R
$$

KYZ035>037-039>044-047>052-055>060-089>105-031400-
NORTHEAST KENTUCKY

CITY           SKY/WX    TMP DP  RH WIND       PRES   REMARKS
LEXINGTON      MOSUNNY   59  49  69 S5        30.15R
COVINGTON      PTSUNNY   63  50  62 S3        30.13R
FRANKFORT      PTSUNNY   58  49  72 SE3       30.13S
$$

KYZ054-064>069-076>088-106>120-031400-
SOUTHEAST KENTUCKY

CITY           SKY/WX    TMP DP  RH WIND       PRES   REMARKS
JACKSON        PTSUNNY   55  41  59 CALM      30.17R
LONDON         SUNNY     55  45  68 S3        30.17R
SOMERSET       NOT AVBL
MIDDLESBORO    SUNNY     48  45  87 CALM      30.21S
MONTICELLO     SUNNY     56  49  77 CALM      30.19R
$$



USA.gov is the U.S. government's official web portal to all federal, state and local government web resources and services.